Location: Prague
(50.0830°N, 14.4670°E)
Time: 18:24:08
(UTC+01:00)

STARLINK-1666 - Pass Details

Date: 22 September 2020
Orbit: 378 x 381 km, 53.0° (Epoch: 29 October)

Event Time Altitude Azimuth Distance (km) Brightness Sun altitude
Exits shadow 04:04:17 23° 64° (ENE) 863 5.3 -25.6°
Drops below altitude 10° 04:05:38 10° 68° (ENE) 1,396 6.7 -25.4°
Enters shadow 05:00:40 -70° 261° (W) 12,407 10.5 -17.7°
